{"data":{"norad_id":55296,"intl_designator":"2023-010AD","name":"STARLINK-5285","alt_names":[],"object_type":"PAYLOAD","status":"ACTIVE","operator":null,"country":"US","launch_date":"2023-01-19","launch_site_code":"AFWTR","launch_vehicle":null,"mission":null,"orbit_class":"UNKNOWN","rcs_meters":null,"size_class":null,"mass_kg":null,"dimensions":null,"purposes":["comms"],"wikipedia_slug":null,"has_3d_model":false,"image_url":null,"decayed_at":null,"tle_current":{"epoch":"2026-09-20T23:21:34.352064Z","epoch_age_seconds":52465,"freshness":"FRESH","line1":"1 55296U 23010AD  26263.97331426  .00000273  00000+0  30727-4 0  9991","line2":"2 55296  69.9978 251.9558 0003683 267.8224  92.2514 14.98317975203409","mean_motion":14.98317975,"eccentricity":0.0003683,"inclination_deg":69.9978,"raan_deg":251.9558,"arg_perigee_deg":267.8224,"mean_anomaly_deg":92.2514,"bstar":3.0727e-5,"rev_number":20340,"period_min":96.107770448392,"perigee_km":569.53330777613,"apogee_km":574.65284725122,"semimajor_km":6950.2300775137,"source":"CELESTRAK","updated_at":"2026-09-21T09:00:33.171011Z"}}}